Tracking 29932 objects as of 4-Dec-2024
HD Live streaming from Space Station
objects crossing your sky now

STARLINK-30806

Track STARLINK-30806 now!
10-day predictions
STARLINK-30806 is classified as:


NORAD ID: 58180
Int'l Code: 2023-167F
Perigee: 565.3 km
Apogee: 567.1 km
Inclination: 43.0 °
Period: 95.8 minutes
Semi major axis: 6937 km
RCS: Unknown
Launch date: October 30, 2023
Source: United States (US)
Launch site: AIR FORCE EASTERN TEST RANGE (AFETR)
Your satellite tracking list
Your tracking list is empty




NASA's NSSDC Master Catalog

Two Line Element Set (TLE):
1 58180U 23167F   24338.15245866  .00002084  00000-0  16920-3 0  9993
2 58180  43.0020 134.1812 0001309 268.7963  91.2730 15.02554161 61523
Source of the keplerian elements: AFSPC